Location: Arbon
(43.0005°N, 0.7472°E)
Time: 11:33:42
(UTC+00:00)

ATLAS 5 CENTAUR R/B - Pass Details

Date: 22 April 2026
Orbit: 360 x 1064 km, 63.3° (Epoch: 15 May)

Event Time Altitude Azimuth Distance (km) Brightness Sun altitude
Rises 21:07:54 0° 337° (NNW) 2,604 5.9 -22.6°
Reaches altitude 10° 21:10:33 10° 358° (N) 1,839 4.6 -23.0°
Maximum altitude 21:13:21 17° 41° (NE) 1,552 3.6 -23.3°
Enters shadow 21:14:03 17° 53° (NE) 1,610 3.6 -23.4°
